Henderson, KY

10:04 AM CST on December 13, 2019 (GMT -0600)
Henderson City-County

Weather History for KEHR - October, 2019

Change the Weather History Date:

Tuesday, October 8, 2019

  Actual Average Record
Temperature  
Mean Temperature 56 °F -  
Max Temperature 73 °F 72 °F 93 °F (2007)
Min Temperature 39 °F 47 °F 28 °F (1987)
Degree Days  
Heating Degree Days 9    
Growing Degree Days 6 (Base 50)    
Moisture  
Dew Point 42 °F    
Average Humidity 84    
Maximum Humidity 100    
Minimum Humidity 30    
Precipitation  
Precipitation 0.00 in - - ()
Sea Level Pressure  
Sea Level Pressure 30.19 in    
Wind  
Wind Speed 1 mph (ENE)    
Max Wind Speed 13 mph    
Max Gust Speed 20 mph    
Visibility 4 miles    
Events Fog    
Averages and records for this station are not official NWS values.
T = Trace of Precipitation, MM = Missing Value Source: NWS Daily Summary

Daily Weather History Graph

Daily Weather History Graph

Search for Another Location

Airport or City:

Astronomy

Oct. 08, 2019 Rise Set
Actual Time 6:52 AM CDT 6:23 PM CDT
Civil Twilight 6:26 AM CDT 6:49 PM CDT
Nautical Twilight 5:55 AM CDT 7:20 PM CDT
Astronomical Twilight 5:25 AM CDT 7:50 PM CDT
Moon 4:15 PM CDT (10/8) 1:48 AM CDT (10/8)
Length of Visible Light 12h 23m
Length of Day
11h 31m
Waxing Gibbous, 78% of the Moon is Illuminated
Oct 8
Waxing Gibbous
Oct 13
Full
Oct 21
Last Quarter
Oct 27
New
Nov 4
First Quarter

Hourly Weather History & Observations

Time (CDT) Temp. Dew Point Humidity Pressure Visibility Wind Dir Wind Speed Gust Speed Precip Events Conditions
12:56 AM 45.0 °F 44.1 °F 97% 30.20 in 10.0 mi Calm Calm - N/A   Clear
1:56 AM 43.0 °F 42.1 °F 97% 30.20 in 7.0 mi Calm Calm - N/A   Clear
2:10 AM 42.8 °F 42.8 °F 100% 30.20 in 1.8 mi Calm Calm - N/A   Clear
2:15 AM 44.6 °F 44.6 °F 100% 30.20 in 0.8 mi Calm Calm - N/A   Clear
2:34 AM 42.8 °F 42.8 °F 100% 30.20 in 1.2 mi Calm Calm - N/A   Clear
2:39 AM 39.2 °F 39.2 °F 100% 30.20 in 3.0 mi Calm Calm - N/A   Clear
2:56 AM 42.1 °F 41.0 °F 96% 30.20 in 1.2 mi Calm Calm - N/A   Clear
2:58 AM 42.8 °F 42.8 °F 100% 30.20 in 0.8 mi Calm Calm - N/A   Clear
3:06 AM 42.8 °F 42.8 °F 100% 30.19 in 0.5 mi Calm Calm - N/A Fog Fog
3:10 AM 42.8 °F 42.8 °F 100% 30.19 in 1.0 mi Calm Calm - N/A   Clear
3:13 AM 42.8 °F 42.8 °F 100% 30.19 in 2.0 mi Calm Calm - N/A   Clear
3:21 AM 42.8 °F 42.8 °F 100% 30.19 in 1.0 mi Calm Calm - N/A   Clear
3:28 AM 42.8 °F 42.8 °F 100% 30.19 in 0.5 mi Calm Calm - N/A Fog Fog
3:56 AM 42.1 °F 41.0 °F 96% 30.19 in 0.5 mi Calm Calm - N/A Fog Fog
4:16 AM 39.2 °F 39.2 °F 100% 30.20 in 1.0 mi Calm Calm - N/A   Clear
4:22 AM 39.2 °F 39.2 °F 100% 30.20 in 2.0 mi Calm Calm - N/A   Clear
4:30 AM 41.0 °F 39.2 °F 93% 30.20 in 1.0 mi Calm Calm - N/A   Clear
4:32 AM 39.2 °F 39.2 °F 100% 30.20 in 0.8 mi Calm Calm - N/A   Mist
4:40 AM 39.2 °F 39.2 °F 100% 30.20 in 0.5 mi Calm Calm - N/A Fog Fog
4:56 AM 41.0 °F 41.0 °F 100% 30.21 in 0.2 mi Calm Calm - N/A Fog Fog
5:56 AM 42.1 °F 42.1 °F 100% 30.21 in 0.2 mi Calm Calm - N/A Fog Fog
6:13 AM 42.8 °F 42.8 °F 100% 30.21 in 0.8 mi Calm Calm - N/A   Overcast
6:21 AM 42.8 °F 42.8 °F 100% 30.21 in 0.2 mi Calm Calm - N/A Fog Fog
6:52 AM 41.0 °F 41.0 °F 100% 30.21 in 0.2 mi Calm Calm - N/A Fog Fog
6:56 AM 41.0 °F 41.0 °F 100% 30.22 in 0.2 mi Calm Calm - N/A Fog Fog
7:05 AM 41.0 °F 41.0 °F 100% 30.21 in 0.5 mi Calm Calm - N/A Fog Fog
7:19 AM 39.2 °F 39.2 °F 100% 30.21 in 0.2 mi Calm Calm - N/A Fog Fog
7:28 AM 41.0 °F 41.0 °F 100% 30.21 in 0.8 mi Calm Calm - N/A   Clear
7:38 AM 42.8 °F 42.8 °F 100% 30.22 in 1.2 mi Calm Calm - N/A   Clear
7:45 AM 42.8 °F 42.8 °F 100% 30.22 in 3.0 mi Calm Calm - N/A   Clear
7:56 AM 45.0 °F 44.1 °F 97% 30.23 in 4.0 mi Calm Calm - N/A   Clear
8:56 AM 55.0 °F 53.1 °F 93% 30.23 in 10.0 mi NE 5.8 mph - N/A   Clear
9:56 AM 64.0 °F 48.9 °F 58% 30.23 in 10.0 mi ENE 10.4 mph - N/A   Clear
10:56 AM 68.0 °F 44.1 °F 42% 30.22 in 10.0 mi East 9.2 mph - N/A   Clear
11:56 AM 71.1 °F 42.1 °F 35% 30.20 in 10.0 mi East 12.7 mph 19.6 mph N/A   Clear
12:56 PM 72.0 °F 43.0 °F 35% 30.17 in 10.0 mi ENE 12.7 mph - N/A   Clear
1:56 PM 73.9 °F 43.0 °F 33% 30.14 in 10.0 mi ENE 9.2 mph - N/A   Clear
2:56 PM 73.9 °F 41.0 °F 30% 30.13 in 10.0 mi NNE 6.9 mph 17.3 mph N/A   Clear
3:56 PM 73.9 °F 41.0 °F 30% 30.11 in 10.0 mi NNE 6.9 mph - N/A   Clear
4:56 PM 73.9 °F 42.1 °F 32% 30.11 in 10.0 mi ENE 6.9 mph - N/A   Clear
5:56 PM 71.1 °F 43.0 °F 36% 30.11 in 8.0 mi NNE 5.8 mph - N/A   Clear
6:56 PM 63.0 °F 44.1 °F 50% 30.12 in 10.0 mi ESE 3.5 mph - N/A   Clear
7:56 PM 52.0 °F 43.0 °F 71% 30.12 in 10.0 mi Calm Calm - N/A   Clear
8:56 PM 53.1 °F 45.0 °F 74% 30.13 in 10.0 mi Calm Calm - N/A   Clear
9:56 PM 46.9 °F 42.1 °F 83% 30.13 in 10.0 mi Calm Calm - N/A   Clear
10:56 PM 44.1 °F 41.0 °F 89% 30.12 in 10.0 mi Calm Calm - N/A   Clear
11:56 PM 44.1 °F 41.0 °F 89% 30.12 in 10.0 mi Calm Calm - N/A   Clear